When you browse on this site, cookies collect data to enhance your experience and personalize the content and advertising you see.
Visit our Privacy Policy to learn more. By continuing to use the site, you agree to this use of cookies and data.
  • In United Kingdom
  • List of Countries
  • For 7 days
  • Water Temperature
  • Weather Map
  • Weather Widgets
  • user-avatar
    Login

    Hourly Weather Nottingham

    Today, 3 June, Wednesday

    Time Temperature Precipitation Wind Pressure Humidity
    00:00 +14°C° 0 mm 1 mps 754 mmHg 76%
    01:00 +14°C° 0 mm 1 mps 754 mmHg 76%
    02:00 +14°C° 0 mm 1 mps 753 mmHg 76%
    03:00 +14°C° 0 mm 1 mps 752 mmHg 77%
    04:00 +13°C° 0.1 mm 1 mps 752 mmHg 79%
    05:00 +13°C° 0.1 mm 2 mps 752 mmHg 82%
    06:00 +12°C° 0.1 mm 3 mps 752 mmHg 85%
    07:00 +12°C° 0.2 mm 3 mps 752 mmHg 85%
    08:00 +12°C° 0.2 mm 3 mps 752 mmHg 86%
    09:00 +12°C° 0.2 mm 4 mps 752 mmHg 87%
    10:00 +12°C° 0.1 mm 4 mps 752 mmHg 87%
    11:00 +12°C° 0.1 mm 4 mps 752 mmHg 88%
    12:00 +12°C° 0.1 mm 4 mps 751 mmHg 88%
    13:00 +12°C° 0.1 mm 5 mps 751 mmHg 87%
    14:00 +12°C° 0.1 mm 5 mps 751 mmHg 87%
    15:00 +12°C° 0.1 mm 5 mps 751 mmHg 87%
    16:00 +12°C° 0.1 mm 5 mps 751 mmHg 87%
    17:00 +12°C° 0.1 mm 5 mps 751 mmHg 87%
    18:00 +10°C° 0.1 mm 6 mps 751 mmHg 88%
    19:00 +10°C° 0 mm 5 mps 751 mmHg 87%
    20:00 +11°C° 0 mm 4 mps 751 mmHg 87%
    21:00 +10°C° 0 mm 3 mps 751 mmHg 86%
    22:00 +10°C° 0 mm 3 mps 751 mmHg 87%
    23:00 +10°C° 0 mm 3 mps 750 mmHg 88%

    Tomorrow, 4 June, Thursday

    Time Temperature Precipitation Wind Pressure Humidity
    00:00 +10°C° 0 mm 3 mps 750 mmHg 89%
    01:00 +10°C° 0.1 mm 3 mps 750 mmHg 91%
    02:00 +9°C° 0.1 mm 3 mps 749 mmHg 92%
    03:00 +8°C° 0.1 mm 4 mps 749 mmHg 93%
    04:00 +8°C° 0.4 mm 4 mps 749 mmHg 93%
    05:00 +8°C° 0.4 mm 4 mps 749 mmHg 92%
    06:00 +8°C° 0.4 mm 5 mps 749 mmHg 92%
    07:00 +10°C° 0 mm 4 mps 748 mmHg 84%
    08:00 +11°C° 0 mm 4 mps 748 mmHg 77%
    09:00 +12°C° 0 mm 4 mps 748 mmHg 70%
    10:00 +13°C° 0.1 mm 4 mps 748 mmHg 68%
    11:00 +13°C° 0.1 mm 4 mps 747 mmHg 65%
    12:00 +13°C° 0.1 mm 4 mps 747 mmHg 63%
    13:00 +13°C° 0.1 mm 3 mps 747 mmHg 64%
    14:00 +13°C° 0.1 mm 3 mps 746 mmHg 64%
    15:00 +13°C° 0.1 mm 3 mps 746 mmHg 65%
    16:00 +13°C° 0.2 mm 3 mps 745 mmHg 69%
    17:00 +13°C° 0.2 mm 2 mps 745 mmHg 72%
    18:00 +13°C° 0.2 mm 2 mps 745 mmHg 76%
    19:00 +12°C° 0.3 mm 2 mps 745 mmHg 80%
    20:00 +10°C° 0.3 mm 2 mps 745 mmHg 84%
    21:00 +9°C° 0.3 mm 3 mps 745 mmHg 88%
    22:00 +9°C° 0.1 mm 3 mps 744 mmHg 89%
    23:00 +7°C° 0.1 mm 4 mps 744 mmHg 89%

    Day after tomorrow, 5 June, Friday

    Time Temperature Precipitation Wind Pressure Humidity
    00:00 +7°C° 0.1 mm 4 mps 743 mmHg 90%
    01:00 +6°C° 0 mm 4 mps 743 mmHg 90%
    02:00 +6°C° 0 mm 4 mps 743 mmHg 91%
    03:00 +6°C° 0 mm 4 mps 742 mmHg 92%
    04:00 +6°C° 0.1 mm 4 mps 742 mmHg 91%
    05:00 +7°C° 0.1 mm 4 mps 742 mmHg 91%
    06:00 +8°C° 0.1 mm 3 mps 742 mmHg 90%
    07:00 +9°C° 0.2 mm 3 mps 742 mmHg 86%
    08:00 +10°C° 0.2 mm 3 mps 742 mmHg 81%
    09:00 +10°C° 0.2 mm 3 mps 743 mmHg 76%
    10:00 +10°C° 0.4 mm 5 mps 742 mmHg 70%
    11:00 +11°C° 0.4 mm 6 mps 742 mmHg 64%
    12:00 +12°C° 0.4 mm 7 mps 742 mmHg 58%
    13:00 +13°C° 0.1 mm 8 mps 742 mmHg 56%
    14:00 +13°C° 0.1 mm 8 mps 742 mmHg 54%
    15:00 +13°C° 0.1 mm 9 mps 742 mmHg 52%
    16:00 +12°C° 0.1 mm 8 mps 741 mmHg 54%
    17:00 +12°C° 0.1 mm 8 mps 741 mmHg 56%
    18:00 +11°C° 0.1 mm 7 mps 741 mmHg 58%
    19:00 +10°C° 0 mm 7 mps 742 mmHg 59%
    20:00 +8°C° 0 mm 6 mps 742 mmHg 61%
    21:00 +7°C° 0 mm 6 mps 742 mmHg 62%
    22:00 +5°C° 0 mm 6 mps 742 mmHg 64%
    23:00 +5°C° 0 mm 6 mps 742 mmHg 65%

    6 June, Saturday

    Time Temperature Precipitation Wind Pressure Humidity
    00:00 +5°C° 0 mm 6 mps 742 mmHg 66%
    01:00 +4°C° 0 mm 6 mps 742 mmHg 69%
    02:00 +4°C° 0 mm 6 mps 742 mmHg 72%
    03:00 +4°C° 0 mm 6 mps 742 mmHg 74%
    04:00 +4°C° 0.1 mm 7 mps 742 mmHg 77%
    05:00 +5°C° 0.1 mm 8 mps 741 mmHg 79%
    06:00 +5°C° 0.1 mm 9 mps 741 mmHg 81%
    07:00 +6°C° 0.2 mm 9 mps 741 mmHg 80%
    08:00 +6°C° 0.2 mm 9 mps 741 mmHg 79%
    09:00 +6°C° 0.2 mm 10 mps 741 mmHg 78%
    10:00 +7°C° 0.3 mm 10 mps 741 mmHg 80%
    11:00 +7°C° 0.3 mm 10 mps 741 mmHg 82%
    12:00 +7°C° 0.3 mm 10 mps 741 mmHg 84%
    13:00 +7°C° 0.3 mm 9 mps 741 mmHg 85%
    14:00 +7°C° 0.3 mm 9 mps 741 mmHg 87%
    15:00 +7°C° 0.3 mm 9 mps 741 mmHg 88%
    16:00 +7°C° 0.2 mm 9 mps 741 mmHg 88%
    17:00 +7°C° 0.2 mm 9 mps 741 mmHg 88%
    18:00 +7°C° 0.2 mm 9 mps 741 mmHg 88%
    19:00 +7°C° 0.4 mm 8 mps 741 mmHg 89%
    20:00 +7°C° 0.4 mm 8 mps 741 mmHg 91%
    21:00 +8°C° 0.4 mm 7 mps 741 mmHg 92%
    22:00 +8°C° 0.1 mm 7 mps 741 mmHg 92%
    23:00 +8°C° 0.1 mm 7 mps 741 mmHg 92%

    7 June, Sunday

    Time Temperature Precipitation Wind Pressure Humidity
    00:00 +8°C° 0.1 mm 7 mps 741 mmHg 92%
    01:00 +8°C° 0.1 mm 6 mps 741 mmHg 92%
    02:00 +8°C° 0.1 mm 6 mps 741 mmHg 92%
    03:00 +8°C° 0.1 mm 6 mps 741 mmHg 93%
    04:00 +8°C° 0.1 mm 6 mps 741 mmHg 92%
    05:00 +9°C° 0.1 mm 7 mps 741 mmHg 91%
    06:00 +9°C° 0.1 mm 7 mps 742 mmHg 90%
    07:00 +9°C° 1 mm 7 mps 742 mmHg 90%
    08:00 +9°C° 1 mm 7 mps 742 mmHg 90%
    09:00 +10°C° 1 mm 7 mps 743 mmHg 90%
    10:00 +10°C° 0.7 mm 6 mps 743 mmHg 89%
    11:00 +11°C° 0.7 mm 6 mps 744 mmHg 87%
    12:00 +13°C° 0.7 mm 6 mps 744 mmHg 86%
    13:00 +13°C° 0.6 mm 6 mps 744 mmHg 84%
    14:00 +14°C° 0.6 mm 6 mps 744 mmHg 81%
    15:00 +15°C° 0.6 mm 6 mps 745 mmHg 79%
    16:00 +14°C° 0.5 mm 6 mps 745 mmHg 80%
    17:00 +14°C° 0.5 mm 6 mps 745 mmHg 81%
    18:00 +14°C° 0.5 mm 5 mps 746 mmHg 83%
    19:00 +12°C° 0.1 mm 5 mps 746 mmHg 85%
    20:00 +11°C° 0.1 mm 4 mps 746 mmHg 87%
    21:00 +10°C° 0.1 mm 4 mps 747 mmHg 89%
    22:00 +9°C° 0 mm 3 mps 747 mmHg 89%
    23:00 +9°C° 0 mm 3 mps 747 mmHg 90%

    8 June, Monday

    Time Temperature Precipitation Wind Pressure Humidity
    00:00 +8°C° 0 mm 3 mps 747 mmHg 90%
    01:00 +8°C° 0 mm 2 mps 747 mmHg 91%
    02:00 +8°C° 0 mm 2 mps 747 mmHg 92%
    03:00 +8°C° 0 mm 2 mps 747 mmHg 93%
    04:00 +9°C° 0 mm 2 mps 747 mmHg 92%
    05:00 +9°C° 0 mm 2 mps 747 mmHg 91%
    06:00 +10°C° 0 mm 2 mps 747 mmHg 90%
    07:00 +12°C° 0 mm 3 mps 747 mmHg 84%
    08:00 +13°C° 0 mm 3 mps 748 mmHg 78%
    09:00 +15°C° 0 mm 4 mps 748 mmHg 73%
    10:00 +15°C° 0.4 mm 4 mps 748 mmHg 71%
    11:00 +17°C° 0.4 mm 4 mps 748 mmHg 70%
    12:00 +18°C° 0.4 mm 4 mps 748 mmHg 69%
    13:00 +18°C° 0.8 mm 4 mps 748 mmHg 69%
    14:00 +18°C° 0.8 mm 4 mps 748 mmHg 70%
    15:00 +18°C° 0.8 mm 4 mps 748 mmHg 70%
    16:00 +18°C° 0.7 mm 4 mps 748 mmHg 73%
    17:00 +17°C° 0.7 mm 3 mps 748 mmHg 76%
    18:00 +17°C° 0.7 mm 3 mps 749 mmHg 79%
    19:00 +14°C° 0.1 mm 3 mps 749 mmHg 83%
    20:00 +14°C° 0.1 mm 2 mps 749 mmHg 86%
    21:00 +12°C° 0.1 mm 2 mps 750 mmHg 89%
    22:00 +12°C° 0 mm 2 mps 750 mmHg 90%
    23:00 +10°C° 0 mm 2 mps 750 mmHg 92%
    Show more